Wind_Speed
15 12 16 19 19 19 18 19 19 18 16 15 14 14 14 13 13 12 12 13 14 14 14 14 14 13 13 12 11 11 9 8 6
11 19 20 19 19 18 16 15 15 14 13 12 11 11 11 11 10 10 10 11 11 12 12 13 13 13 13 12 12 11 10 10 8
21 22 21 20 19 17 15 13 11 10 9 9 9 8 9 8 9 9 9 9 10 10 11 11 12 12 12 12 11 11 11 10 10
23 22 21 19 18 16 13 11 9 6 6 6 6 6 6 6 7 7 8 8 9 10 10 10 11 11 11 11 11 11 11 10 10
21 21 19 18 16 14 11 10 8 6 4 3 3 3 4 4 5 6 6 7 8 9 9 10 10 10 10 11 10 10 10 11 10
20 18 17 16 14 13 11 9 7 6 4 2 1 1 2 3 3 4 5 6 8 8 9 9 9 10 10 10 10 10 10 10 9
16 15 15 14 13 11 10 9 7 5 4 3 2 2 2 3 2 3 4 5 7 7 8 8 8 9 9 9 10 10 9 9 9
15 14 13 12 11 10 9 8 7 7 5 4 3 3 3 3 2 3 3 4 6 7 8 9 9 10 9 8 9 9 9 8 8
14 12 11 11 11 10 9 8 7 6 5 4 3 2 2 2 2 3 4 4 5 7 8 10 11 11 8 8 10 9 8 8 8
12 11 10 11 12 11 10 9 7 7 6 5 4 3 3 4 4 4 4 5 6 8 9 11 11 10 12 12 13 10 9 9 8
12 11 11 11 10 10 10 10 8 8 7 6 5 5 5 6 5 5 6 9 10 11 11 11 11 11 14 14 13 14 13 12 10
11 10 11 10 10 11 10 10 9 8 8 6 7 8 6 5 6 8 9 11 13 14 15 15 13 11 13 14 13 14 14 13 13
11 11 10 11 12 12 11 10 9 8 8 8 7 6 7 9 10 12 14 15 15 15 18 18 17 15 13 15 14 15 16 15 12
13 10 10 11 13 12 11 10 9 8 7 6 7 9 11 14 15 18 19 18 19 18 17 18 16 13 13 15 13 16 14 15 13
14 12 11 13 14 14 13 10 9 6 7 10 12 14 16 16 19 19 22 22 22 21 18 18 13 14 15 13 12 15 14 14 14
20 18 14 14 16 14 12 9 8 10 11 13 16 19 21 21 22 20 16 15 16 18 16 14 12 16 15 11 13 16 14 14 13
25 22 18 15 15 15 13 11 12 12 13 15 17 18 20 11 8 14 20 14 13 9 9 12 14 12 11 10 17 15 15 16 16
23 24 23 17 14 14 15 13 13 14 14 15 15 10 9 23 19 17 16 17 15 18 18 12 13 13 15 16 17 16 16 15 15
26 24 23 20 16 15 13 12 13 16 19 20 22 22 25 26 20 19 13 15 15 15 14 14 15 17 18 20 19 17 16 15 14
20 19 21 20 16 11 10 12 15 18 22 23 24 23 22 20 20 26 24 19 16 18 18 19 18 20 18 18 18 16 16 16 16
Wind_Direction
147 149 143 138 134 131 124 118 115 112 107 101 93 86 83 81 79 74 68 62 58 54 50 46 44 42 42 42 38 37 42 65 66
160 149 145 140 139 139 134 125 118 114 108 101 92 88 82 77 74 68 59 55 49 45 42 41 41 40 38 38 36 32 31 24 23
151 147 147 145 145 145 141 134 128 121 113 105 95 86 79 71 66 60 54 49 42 38 35 35 36 36 36 35 33 31 28 25 21
149 148 151 151 150 150 148 145 140 131 122 111 100 88 78 63 54 52 50 43 40 35 33 36 32 31 30 29 27 24 22 21 20
153 154 156 155 155 155 156 157 157 161 165 140 102 85 65 56 48 43 43 41 38 32 28 29 27 24 23 21 22 19 18 17 16
158 159 159 160 162 164 167 172 176 179 184 202 207 34 34 31 30 34 36 31 32 29 22 18 15 14 12 10 12 13 12 11 11
165 166 169 172 175 179 182 186 190 195 199 215 246 292 333 356 7 16 21 19 17 14 13 5 1 359 358 0 3 7 6 5 4
177 180 182 186 190 194 199 199 201 204 212 225 244 268 290 329 353 4 2 357 359 355 353 353 347 344 341 343 356 356 0 2 358
189 189 195 203 207 211 213 212 215 214 223 232 228 246 283 299 326 341 344 344 343 345 344 343 343 339 335 332 331 331 338 343 347
203 209 215 219 219 219 220 217 215 222 228 229 239 261 267 291 302 318 338 336 340 337 339 339 338 332 335 333 319 316 313 315 326
218 231 232 223 220 218 217 219 219 225 233 242 255 262 277 289 296 307 322 325 318 316 319 313 320 331 326 326 328 322 311 306 296
226 229 229 228 224 221 217 220 227 234 244 257 272 287 293 299 306 308 312 315 301 297 296 298 298 294 300 302 315 321 311 297 295
226 232 233 231 229 227 227 231 235 242 258 274 289 297 300 306 307 296 292 287 285 291 292 291 294 291 282 294 306 311 313 310 304
227 234 235 235 233 230 231 234 242 254 272 287 296 303 297 295 288 289 298 294 287 286 279 284 286 276 271 281 293 308 304 299 302
235 241 238 237 235 234 232 240 255 267 281 289 291 290 289 289 292 295 293 292 286 282 283 290 279 282 267 263 286 300 291 291 302
239 244 242 242 241 239 237 233 249 264 276 290 294 288 289 291 294 294 298 304 297 281 276 277 268 272 270 254 289 295 281 281 290
242 237 242 245 243 238 229 239 251 262 271 284 296 301 307 311 312 300 300 304 306 280 275 276 272 260 252 264 286 287 276 274 282
250 243 240 242 239 237 231 240 252 266 275 280 280 295 293 305 311 310 298 280 287 283 291 277 267 258 267 282 287 282 277 275 279
240 247 245 236 235 239 244 257 268 276 280 279 277 277 280 286 295 301 301 293 285 283 282 265 263 267 275 278 287 273 272 271 275
253 263 249 245 239 233 261 265 280 288 289 291 288 288 289 286 279 288 295 293 290 283 277 265 261 266 269 269 267 267 271 267 278
Height
1549 1552 1553 1555 1556 1558 1559 1560 1562 1563 1563 1564 1565 1565 1566 1566 1566 1566 1566 1566 1566 1565 1564 1564 1563 1562 1561 1560 1560 1559 1558 1558 1558
1550 1552 1554 1556 1558 1559 1561 1562 1563 1564 1565 1566 1566 1567 1567 1568 1568 1568 1568 1567 1567 1567 1566 1565 1565 1563 1562 1561 1560 1560 1559 1558 1557
1551 1553 1555 1557 1559 1560 1562 1563 1564 1565 1566 1567 1568 1568 1568 1569 1568 1568 1568 1568 1568 1567 1567 1566 1565 1564 1563 1562 1561 1560 1559 1558 1557
1552 1554 1556 1558 1560 1562 1563 1564 1565 1566 1567 1568 1569 1569 1569 1569 1569 1569 1569 1568 1568 1568 1567 1566 1566 1565 1564 1563 1562 1561 1560 1559 1558
1553 1555 1557 1559 1561 1562 1564 1565 1566 1567 1567 1568 1569 1569 1569 1569 1569 1569 1569 1569 1569 1568 1568 1567 1566 1566 1565 1564 1563 1562 1561 1559 1558
1553 1556 1558 1560 1562 1563 1564 1566 1566 1567 1568 1569 1569 1569 1569 1570 1570 1570 1569 1569 1568 1568 1568 1567 1567 1566 1565 1564 1563 1562 1561 1560 1558
1554 1556 1558 1560 1561 1563 1564 1565 1566 1567 1568 1568 1569 1569 1569 1569 1569 1570 1570 1569 1569 1568 1568 1567 1566 1566 1565 1564 1563 1561 1560 1559 1558
1553 1555 1557 1559 1561 1562 1564 1565 1566 1566 1567 1567 1568 1569 1569 1569 1569 1569 1569 1569 1569 1568 1567 1567 1566 1565 1564 1564 1562 1561 1561 1559 1558
1554 1555 1557 1558 1560 1561 1563 1564 1565 1566 1567 1567 1567 1568 1568 1568 1569 1569 1569 1568 1568 1568 1567 1566 1565 1564 1563 1562 1562 1561 1560 1559 1558
1553 1555 1556 1557 1558 1559 1561 1562 1564 1565 1565 1566 1567 1567 1567 1567 1567 1568 1568 1568 1568 1567 1567 1566 1565 1563 1562 1561 1560 1560 1559 1558 1558
1552 1553 1555 1556 1557 1558 1559 1561 1561 1563 1564 1565 1565 1565 1565 1565 1565 1566 1566 1566 1566 1566 1565 1564 1564 1563 1562 1560 1559 1558 1557 1556 1555
1550 1551 1553 1554 1555 1556 1558 1559 1560 1561 1562 1562 1563 1563 1563 1564 1564 1564 1564 1564 1563 1563 1563 1561 1561 1561 1561 1559 1558 1556 1555 1555 1553
1547 1548 1550 1552 1553 1554 1556 1557 1558 1559 1560 1561 1561 1562 1562 1562 1562 1562 1562 1561 1561 1560 1559 1558 1558 1558 1558 1558 1557 1556 1553 1552 1552
1544 1545 1547 1548 1550 1551 1553 1555 1556 1557 1558 1558 1559 1560 1559 1559 1559 1559 1558 1557 1556 1556 1555 1554 1554 1554 1555 1554 1553 1553 1552 1550 1549
1541 1542 1543 1544 1546 1549 1550 1552 1554 1555 1557 1557 1557 1557 1556 1555 1555 1554 1554 1553 1552 1551 1552 1551 1550 1552 1552 1551 1551 1549 1548 1547 1547
1537 1540 1541 1542 1544 1546 1547 1549 1551 1553 1554 1554 1554 1553 1553 1551 1550 1549 1549 1549 1547 1546 1547 1546 1547 1548 1548 1548 1547 1546 1545 1544 1544
1532 1535 1537 1539 1541 1544 1545 1546 1549 1550 1552 1552 1551 1548 1547 1546 1546 1545 1545 1544 1544 1544 1544 1543 1543 1544 1544 1544 1544 1542 1541 1541 1540
1528 1530 1532 1535 1537 1540 1542 1543 1545 1547 1548 1549 1551 1549 1545 1543 1541 1540 1541 1541 1541 1541 1541 1540 1540 1541 1541 1541 1540 1540 1538 1537 1537
1523 1526 1528 1531 1533 1536 1538 1540 1542 1543 1544 1545 1546 1546 1545 1544 1538 1537 1537 1538 1537 1536 1537 1538 1537 1537 1538 1538 1537 1536 1536 1535 1534
1518 1520 1524 1528 1529 1531 1534 1536 1539 1539 1540 1540 1540 1539 1539 1539 1537 1533 1532 1533 1533 1532 1531 1534 1534 1532 1532 1533 1532 1530 1531 1532 1532